Find Starlink 5679

NORAD ID: 55467 Int'l Des: 2023-015 Owner: SPXS Country: US Constellation: starlink operational
LEOCIRCULAR

当前视图

正在加载3D地球...

About Starlink 5679

Starlink 5679 (NORAD 55467) is a starlink constellation satellite (v1.5) launched Feb 2, 2023 by SPXS of US. It operates in LEO, CIRCULAR orbit with a mass of 305.00 kg.

关于 Starlink 5679

正在加载描述...

即将过境

Passes for default location (London). Set your location on the main map for personalized predictions.

高度历史

Loading altitude history...

两行轨道根数

1 55467U 23015U 26165.64817426 -.00002181 00000-0 -69806-4 0 9993
2 55467 43.0016 140.8845 0000801 268.7088 91.3672 15.27558946185555
Epoch: Jun 14, 2026 • Age: 28 hours

当前状态

高度 486.9 km
速度 7.62 km/s
星下点 -18.69°S, 144.36°E
发射日期 Feb 2, 2023
运行时间 3.3 years
类型 internet

技术详情

分类 Payload
质量 305.00 kg
干质量 290.00 kg
总质量 305.00 kg
长度 0.20 m
直径 2.80 m
跨度 9.00 m
形状 Box + pan
制造商 SPXS
平台类型 Starlink
阶段状态 In Orbit
所有者/国家 SPXS/US

Most Searched